Location: Clanezzo
(45.7500°N, 9.6000°E)
Time: 04:25:17
(UTC+00:00)

Cosmos 1340 Rocket - Pass Details

Date: 12 May 2021
Orbit: 527 x 559 km, 81.2° (Epoch: 18 June)

Event Time Altitude Azimuth Distance (km) Brightness Sun altitude
Rises 20:43:20 0° 359° (N) 2,758 7.3 -17.0°
Reaches altitude 10° 20:45:48 10° 12° (NNE) 1,856 6.1 -17.2°
Maximum altitude 20:49:18 27° 71° (ENE) 1,097 4.2 -17.6°
Enters shadow 20:50:07 25° 92° (E) 1,150 4.1 -17.7°
